Phoenix-Mesa Gateway Airport, AZ

5:21 PM MST on May 22, 2017 (GMT -0700)
Phoenix-Mesa Gateway Airport

Weather History for KIWA - March, 2013

Change the Weather History Date:

Friday, March 29, 2013

  Actual Average Record
Temperature  
Mean Temperature 70 °F -  
Max Temperature 84 °F 75 °F 96 °F (2004)
Min Temperature 55 °F 51 °F 44 °F (2007)
Cooling Degree Days 4    
Growing Degree Days 20 (Base 50)    
Moisture  
Dew Point 26 °F    
Average Humidity 23    
Maximum Humidity 36    
Minimum Humidity 8    
Precipitation  
Precipitation 0.00 in - - ()
Sea Level Pressure  
Sea Level Pressure 30.04 in    
Wind  
Wind Speed 5 mph (ESE)    
Max Wind Speed 8 mph    
Max Gust Speed -    
Visibility 11 miles    
Events      
Averages and records for this station are not official NWS values.
T = Trace of Precipitation, MM = Missing Value Source: NWS Daily Summary

Daily Weather History Graph

Daily Weather History Graph

Search for Another Location

Airport or City:

Trip Planner

Search our weather history database for the weather conditions in past years. The results will help you decide how hot, cold, wet, or windy it might be!

Date:

Astronomy

Mar. 29, 2013 Rise Set
Actual Time 6:17 AM MST 6:45 PM MST
Civil Twilight 5:53 AM MST 7:10 PM MST
Nautical Twilight 5:23 AM MST 7:39 PM MST
Astronomical Twilight 4:54 AM MST 8:09 PM MST
Moon 9:38 PM MST (3/29) 7:38 AM MST (3/29)
Length of Visible Light 13h 16m
Length of Day
12h 27m
Waning Gibbous, 93% of the Moon is Illuminated
Mar 29
Waning Gibbous
Apr 2
Last Quarter
Apr 10
New
Apr 18
First Quarter
Apr 25
Full

Hourly Weather History & Observations

Time (MST) Temp. Dew Point Humidity Pressure Visibility Wind Dir Wind Speed Gust Speed Precip Events Conditions
12:15 AM 62.6 °F 32.0 °F 32% 30.03 in 10.0 mi SE 5.8 mph - N/A   Clear
12:35 AM 60.8 °F 32.0 °F 34% 30.03 in 10.0 mi SE 5.8 mph - N/A   Clear
12:55 AM 60.8 °F 32.0 °F 34% 30.03 in 10.0 mi ESE 5.8 mph - N/A   Clear
1:15 AM 60.8 °F 30.2 °F 31% 30.03 in 10.0 mi ESE 4.6 mph - N/A   Clear
1:35 AM 60.8 °F 30.2 °F 31% 30.03 in 10.0 mi ESE 6.9 mph - N/A   Clear
1:55 AM 60.8 °F 30.2 °F 31% 30.04 in 10.0 mi East 5.8 mph - N/A   Clear
2:15 AM 57.2 °F 28.4 °F 33% 30.04 in 10.0 mi East 4.6 mph - N/A   Clear
2:35 AM 57.2 °F 28.4 °F 33% 30.04 in 10.0 mi East 5.8 mph - N/A   Clear
2:55 AM 57.2 °F 28.4 °F 33% 30.04 in 10.0 mi East 4.6 mph - N/A   Clear
3:15 AM 57.2 °F 28.4 °F 33% 30.04 in 10.0 mi ESE 5.8 mph - N/A   Clear
3:35 AM 55.4 °F 28.4 °F 36% 30.04 in 10.0 mi East 5.8 mph - N/A   Clear
3:55 AM 57.2 °F 28.4 °F 33% 30.04 in 10.0 mi East 6.9 mph - N/A   Clear
4:15 AM 57.2 °F 28.4 °F 33% 30.05 in 10.0 mi East 8.1 mph - N/A   Clear
4:35 AM 57.2 °F 28.4 °F 33% 30.05 in 10.0 mi East 6.9 mph - N/A   Clear
4:55 AM 55.4 °F 28.4 °F 36% 30.05 in 10.0 mi East 8.1 mph - N/A   Clear
5:15 AM 55.4 °F 26.6 °F 33% 30.05 in 10.0 mi East 6.9 mph - N/A   Clear
7:47 AM 57.2 °F 30.2 °F 36% 30.09 in 45.0 mi ESE 6.9 mph - N/A   Partly Cloudy
8:47 AM 66.2 °F 30.2 °F 26% 30.10 in 45.0 mi East 4.6 mph - N/A   Partly Cloudy
9:47 AM 73.4 °F 32.0 °F 22% 30.10 in 45.0 mi ESE 4.6 mph - N/A   Clear
10:47 AM 78.8 °F 24.8 °F 14% 30.11 in 45.0 mi Calm Calm - N/A   Clear
11:47 AM 80.6 °F 24.8 °F 13% 30.10 in 45.0 mi WNW 4.6 mph - N/A   Clear
12:47 PM 80.6 °F 21.2 °F 11% 30.08 in 35.0 mi WNW 3.5 mph - N/A   Clear
1:47 PM 84.2 °F 23.0 °F 11% 30.05 in 35.0 mi Calm Calm - N/A   Clear
2:21 PM 84.2 °F 19.4 °F 9% 30.04 in 35.0 mi SW 4.6 mph - N/A   Partly Cloudy
2:50 PM 84.2 °F 17.6 °F 8% 30.02 in 35.0 mi WSW 5.8 mph - N/A   Partly Cloudy
3:47 PM 84.2 °F 17.6 °F 8% 30.01 in 30.0 mi Variable 4.6 mph - N/A   Partly Cloudy
4:55 PM 84.2 °F 15.8 °F 8% 30.00 in 30.0 mi West 4.6 mph - N/A   Scattered Clouds
5:47 PM 84.2 °F 17.6 °F 8% 30.00 in 30.0 mi WNW 4.6 mph - N/A   Mostly Cloudy
6:47 PM 78.8 °F 17.6 °F 10% 30.00 in 20.0 mi NW 3.5 mph - N/A   Mostly Cloudy
7:47 PM 78.8 °F 19.4 °F 11% 30.01 in 20.0 mi Calm Calm - N/A   Mostly Cloudy
7:55 PM 73.4 °F 19.4 °F 13% 30.02 in 10.0 mi Calm Calm - N/A   Clear
8:15 PM 71.6 °F 23.0 °F 16% 30.02 in 10.0 mi Calm Calm - N/A   Clear
8:35 PM 69.8 °F 23.0 °F 17% 30.02 in 10.0 mi Calm Calm - N/A   Clear
8:47 PM 69.8 °F 21.2 °F 16% 30.02 in 20.0 mi Calm Calm - N/A   Mostly Cloudy
8:55 PM 68.0 °F 23.0 °F 18% 30.03 in 10.0 mi Calm Calm - N/A   Clear
9:15 PM 66.2 °F 23.0 °F 19% 30.03 in 10.0 mi ESE 3.5 mph - N/A   Clear
9:35 PM 64.4 °F 28.4 °F 26% 30.04 in 10.0 mi East 3.5 mph - N/A   Clear
9:55 PM 62.6 °F 28.4 °F 27% 30.05 in 10.0 mi ESE 4.6 mph - N/A   Clear
10:15 PM 62.6 °F 28.4 °F 27% 30.05 in 10.0 mi East 4.6 mph - N/A   Clear
10:35 PM 62.6 °F 30.2 °F 30% 30.05 in 7.0 mi ESE 6.9 mph - N/A   Clear
10:55 PM 62.6 °F 26.6 °F 26% 30.05 in 10.0 mi ESE 6.9 mph - N/A   Clear
11:15 PM 62.6 °F 24.8 °F 24% 30.05 in 10.0 mi ESE 6.9 mph - N/A   Clear
11:35 PM 62.6 °F 24.8 °F 24% 30.05 in 10.0 mi ESE 6.9 mph - N/A   Clear
11:55 PM 62.6 °F 24.8 °F 24% 30.05 in 10.0 mi ESE 6.9 mph - N/A   Clear